[[{"header":{"parameterUnit":"m.s-1","parameterCategory":1,"la1":30.2991,"la2":30.254,"lo1":-89.0895,"lo2":-89.0444,"dy":0.0017,"dx":0.0017,"nx":28,"ny":28,"refTime":"2025-07-11T21:00:00:Z","depth":0,"parameterNumber":2,"parameterNumberName":"U-component_of_WINDS"},"data":[0,0,0,0,0,0,0,0,0,0,0,0,0,0,0,0,0,0,0,0,0,0,0,0,0,0,0,0,0,0,0,0,0,0,0,0,0,0,0,0,0,0,0,0,0,0,0,0,0,0,0,0,0,0,0,0,0,0,2.1712,2.1713,0,2.177,2.1771,2.1772,2.1798,2.1798,2.1798,2.1798,2.1858,2.186,2.1861,0,0,0,0,0,0,0,0,0,0,0,0,0,2.1626,2.1628,2.1712,2.1713,2.1714,2.177,2.1771,2.1772,2.1798,2.1798,2.1798,2.1798,2.1858,2.186,2.1862,0,0,0,0,0,0,0,0,0,0,0,0,0,2.1672,2.1628,2.1712,2.1734,2.1736,2.177,2.1771,2.1772,2.1798,2.1798,2.1798,2.1798,2.1857,2.1859,2.1862,2.1879,0,0,2.1869,2.1871,0,0,0,0,0,0,0,0,2.1669,2.1675,2.173,2.1732,2.1735,2.1777,2.1763,2.1808,2.1798,2.1775,2.1798,2.1798,2.1831,2.1836,2.1847,2.1882,2.1884,2.187,2.1871,2.1872,2.1873,0,0,0,0,0,0,0,2.1666,2.1673,2.1735,2.1731,2.1734,2.1741,2.1747,2.1771,2.1803,2.1777,2.1779,2.1785,2.1833,2.1845,2.1849,2.1885,2.187,2.1872,2.1873,2.1874,2.1939,2.1939,0,0,0,0,0,0,2.1659,2.167,2.1734,2.1737,2.1701,2.1743,2.175,2.1764,2.1803,2.1808,2.1785,2.1786,2.184,2.1846,2.1851,2.1874,2.1872,2.1875,2.1876,2.1939,2.1939,2.1939,0,0,0,0,0,0,2.1657,2.1665,2.1731,2.1704,2.1713,2.1744,2.176,2.1765,2.1777,2.1809,2.1815,2.1791,2.184,2.1847,2.1872,2.1877,2.1876,2.1878,2.1938,2.1939,2.1939,2.1921,0,0,0,0,0,0,2.1655,2.1664,2.167,2.1704,2.1714,2.1751,2.176,2.1766,2.1781,2.1783,2.1816,2.1822,2.1841,2.1868,2.1875,2.188,2.188,2.1938,2.1938,2.1939,2.1921,2.192,2.192,0,0,0,0,0,2.1651,2.1662,2.167,2.1678,2.1723,2.1751,2.1757,2.1778,2.1781,2.1788,2.1809,2.1821,2.1875,2.1871,2.1878,2.1884,2.1938,2.1938,2.1939,2.1921,2.1921,2.192,0,0,0,0,0,0,2.1628,2.1667,2.1676,2.1699,2.1721,2.1755,2.1765,2.1777,2.1799,2.18,2.1826,2.1834,2.1856,2.1873,2.1867,2.1904,2.1908,2.191,2.1892,2.1891,2.1891,2.1886,2.1882,0,0,0,0,0,2.1626,2.1645,2.1678,2.1695,2.1706,2.1733,2.1746,2.1761,2.1786,2.1795,2.1818,2.1842,2.1865,2.1879,2.1902,2.1924,2.1932,2.1932,2.1931,2.1931,2.1932,2.1946,2.1947,2.1941,2.1941,2.1941,0,0,2.1621,2.1644,2.1655,2.1691,2.171,2.173,2.1741,2.1761,2.1777,2.1799,2.1823,2.1841,2.187,2.1893,2.1905,2.1908,2.1936,2.1931,2.1931,2.1932,2.1947,2.1947,2.1948,2.1941,2.1941,2.1941,0,0,2.1622,2.1641,2.1658,2.1677,2.1706,2.1725,2.1729,2.1761,2.1774,2.1799,2.1817,2.1835,2.1873,2.1893,2.1908,2.1919,2.1931,2.1925,2.1922,2.1935,2.1936,2.1936,2.1941,2.1942,2.1927,2.1927,2.1926,0,2.1612,2.1642,2.1665,2.1684,2.17,2.1721,2.1738,2.1756,2.1791,2.1802,2.1804,2.1854,2.1874,2.1903,2.1906,2.1917,2.1923,2.1921,2.1934,2.1935,2.1936,2.194,2.1941,2.1926,2.1926,2.1926,2.1926,0,2.1629,2.165,2.1659,2.1693,2.171,2.1728,2.1754,2.1769,2.1782,2.18,2.1827,2.1852,2.1881,2.1889,2.1902,2.1921,2.1922,2.1929,2.1933,2.1935,2.194,2.1941,2.1925,2.1925,2.1925,2.1925,0,0,2.1616,2.1662,2.1666,2.1682,2.1716,2.1733,2.1753,2.1781,2.1793,2.1817,2.1834,2.1867,2.1874,2.1891,2.1907,2.1919,2.1926,2.1925,2.1926,2.1925,2.1949,2.1944,2.1945,2.1935,2.1935,2.1935,2.1947,0,2.1622,2.1658,2.1679,2.1707,2.1727,2.1748,2.1765,2.1789,2.1807,2.1827,2.1847,2.187,2.1877,2.1888,2.1901,2.1923,2.1932,2.1922,2.1952,2.1953,2.1944,2.1947,2.1941,2.1951,2.1949,2.1949,2.1949,0,2.1633,2.1657,2.1686,2.172,2.1729,2.1744,2.1772,2.1791,2.1818,2.1831,2.185,2.1867,2.1889,2.1892,2.1924,2.1918,2.1931,2.1944,2.1945,2.1949,2.1951,2.1951,2.1955,2.1956,2.1952,2.1952,2.1952,0,2.1622,2.1661,2.1684,2.1697,2.1736,2.1746,2.1763,2.179,2.1806,2.1831,2.1842,2.1869,2.1883,2.1904,2.1928,2.1928,2.1958,2.1963,2.197,2.1969,2.1975,2.1974,2.1981,2.1984,2.1983,2.1983,2.1983,0,2.1626,2.1644,2.1679,2.1693,2.1714,2.1739,2.1759,2.1777,2.1802,2.182,2.184,2.1858,2.1887,2.1909,2.1927,2.1952,2.1958,2.1969,2.1974,2.1968,2.1966,2.1977,2.1977,2.1984,2.1984,2.1984,2.1984,0,2.1616,2.1641,2.1667,2.1703,2.1712,2.1725,2.1756,2.1771,2.179,2.1814,2.1821,2.1852,2.1878,2.1904,2.1939,2.1951,2.1976,2.1982,2.1966,2.1969,2.1975,2.1974,2.1988,2.1992,2.1992,2.1992,2.1992,0,2.1618,2.1632,2.1668,2.1682,2.1699,2.1721,2.1737,2.1763,2.1779,2.1812,2.1823,2.1851,2.1874,2.1916,2.1942,2.1969,2.1976,2.1979,2.198,2.1974,2.1977,2.1976,2.1978,2.1979,2.1978,2.1978,2.1978,0,2.1618,2.1629,2.1652,2.1679,2.1698,2.1721,2.1744,2.1755,2.1785,2.1803,2.1829,2.1848,2.1884,2.1912,2.1942,2.196,2.1975,2.1978,2.1981,2.1974,2.1965,2.1971,2.1965,2.1977,2.1977,2.1977,2.1977,2.1978,2.1614,2.1627,2.1656,2.1681,2.1701,2.1723,2.1739,2.1761,2.1783,2.1815,2.1829,2.1856,2.1885,2.1927,2.1945,2.1968,2.1971,2.1976,2.1977,2.1978,2.1976,2.1961,2.1973,2.1973,2.1974,2.1974,2.1974,0,2.1615,2.1634,2.1657,2.1689,2.1709,2.1721,2.1748,2.1764,2.1787,2.1813,2.1836,2.1867,2.1894,2.1923,2.1952,2.1964,2.1972,2.1971,2.1971,2.1975,2.1971,2.1966,2.1965,2.1965,2.1965,2.1965,2.1965,2.1965,2.1618,2.1642,2.1657,2.1692,2.1712,2.1738,2.1753,2.1773,2.1794,2.1828,2.1851,2.1869,2.1896,2.1927,2.1953,2.1961,2.1971,2.1969,2.1978,2.1974,2.1975,2.1975,2.1971,2.197,2.197,2.198,2.198,2.198]},{"header":{"parameterUnit":"m.s-1","parameterCategory":1,"la1":30.2991,"la2":30.254,"lo1":-89.0895,"lo2":-89.0444,"dy":0.0017,"dx":0.0017,"nx":28,"ny":28,"refTime":"2025-07-11T21:00:00:Z","depth":0,"parameterNumber":3,"parameterNumberName":"V-component_of_WINDS"},"data":[0,0,0,0,0,0,0,0,0,0,0,0,0,0,0,0,0,0,0,0,0,0,0,0,0,0,0,0,0,0,0,0,0,0,0,0,0,0,0,0,0,0,0,0,0,0,0,0,0,0,0,0,0,0,0,0,0,0,-0.5278,-0.5279,0,-0.5368,-0.5369,-0.537,-0.5401,-0.5401,-0.54,-0.54,-0.5492,-0.5495,-0.5498,0,0,0,0,0,0,0,0,0,0,0,0,0,-0.5135,-0.5137,-0.5278,-0.5279,-0.5281,-0.5368,-0.5369,-0.5371,-0.5401,-0.5401,-0.54,-0.54,-0.5492,-0.5495,-0.5498,0,0,0,0,0,0,0,0,0,0,0,0,0,-0.5208,-0.5138,-0.5278,-0.5306,-0.531,-0.5368,-0.5369,-0.5371,-0.5401,-0.5401,-0.54,-0.54,-0.549,-0.5495,-0.5499,-0.5535,0,0,-0.5511,-0.5513,0,0,0,0,0,0,0,0,-0.5204,-0.5213,-0.5301,-0.5305,-0.5309,-0.5373,-0.5353,-0.5426,-0.5401,-0.5367,-0.54,-0.5399,-0.5453,-0.546,-0.5478,-0.5539,-0.5543,-0.5512,-0.5514,-0.5516,-0.5517,0,0,0,0,0,0,0,-0.5199,-0.521,-0.5314,-0.5302,-0.5307,-0.5315,-0.5325,-0.5367,-0.5412,-0.537,-0.5372,-0.5382,-0.5455,-0.5474,-0.5481,-0.5545,-0.5512,-0.5515,-0.5518,-0.552,-0.5643,-0.5643,0,0,0,0,0,0,-0.5189,-0.5205,-0.5311,-0.5317,-0.5254,-0.5318,-0.5329,-0.5353,-0.5411,-0.542,-0.5383,-0.5383,-0.5467,-0.5476,-0.5484,-0.5532,-0.5516,-0.552,-0.5522,-0.5642,-0.5643,-0.5644,0,0,0,0,0,0,-0.5186,-0.5198,-0.5307,-0.5262,-0.5276,-0.5321,-0.5348,-0.5355,-0.5374,-0.5421,-0.543,-0.5394,-0.5467,-0.5478,-0.5523,-0.5536,-0.5522,-0.5526,-0.5641,-0.5642,-0.5643,-0.5628,0,0,0,0,0,0,-0.5181,-0.5197,-0.521,-0.5262,-0.5279,-0.5344,-0.5348,-0.5357,-0.5381,-0.5383,-0.5434,-0.5442,-0.5468,-0.5516,-0.5527,-0.5541,-0.5529,-0.564,-0.5641,-0.5643,-0.5627,-0.5628,-0.5629,0,0,0,0,0,-0.5176,-0.5202,-0.5211,-0.5224,-0.5297,-0.5345,-0.5354,-0.5383,-0.5382,-0.5397,-0.5427,-0.544,-0.5533,-0.5521,-0.5533,-0.5549,-0.5639,-0.5641,-0.5643,-0.5627,-0.5628,-0.5629,0,0,0,0,0,0,-0.5151,-0.5209,-0.522,-0.5263,-0.5299,-0.535,-0.5369,-0.5383,-0.542,-0.542,-0.5455,-0.5466,-0.5508,-0.5533,-0.5518,-0.5588,-0.5587,-0.5591,-0.557,-0.5572,-0.5573,-0.5566,-0.5532,0,0,0,0,0,-0.515,-0.5184,-0.5233,-0.5267,-0.5284,-0.5324,-0.5345,-0.5365,-0.5403,-0.5418,-0.5452,-0.5489,-0.5527,-0.5551,-0.5587,-0.5631,-0.5643,-0.5648,-0.5649,-0.5649,-0.5653,-0.5679,-0.5682,-0.5649,-0.5649,-0.5649,0,0,-0.515,-0.5186,-0.5205,-0.5263,-0.5293,-0.5328,-0.5336,-0.5372,-0.5399,-0.5424,-0.5468,-0.5494,-0.5538,-0.5582,-0.5604,-0.5604,-0.5665,-0.5651,-0.5651,-0.5655,-0.5681,-0.5684,-0.5687,-0.565,-0.565,-0.565,0,0,-0.5166,-0.5196,-0.5229,-0.5259,-0.5304,-0.533,-0.5338,-0.5387,-0.5406,-0.5451,-0.5471,-0.5503,-0.5567,-0.5598,-0.5621,-0.5652,-0.5665,-0.5663,-0.5667,-0.5693,-0.5695,-0.5698,-0.571,-0.5714,-0.5666,-0.5666,-0.5666,0,-0.516,-0.5213,-0.5243,-0.5279,-0.5304,-0.5329,-0.5363,-0.539,-0.5445,-0.5463,-0.5463,-0.5544,-0.5575,-0.5628,-0.5635,-0.5653,-0.5664,-0.5657,-0.5692,-0.5695,-0.5698,-0.571,-0.5714,-0.5665,-0.5665,-0.5665,-0.5665,0,-0.5203,-0.524,-0.526,-0.5313,-0.5341,-0.5375,-0.5412,-0.5436,-0.5454,-0.548,-0.5527,-0.5565,-0.5611,-0.5625,-0.5642,-0.5681,-0.568,-0.5685,-0.5685,-0.57,-0.5712,-0.5717,-0.5664,-0.5665,-0.5665,-0.5665,0,0,-0.5206,-0.5277,-0.5284,-0.5309,-0.5361,-0.5391,-0.5426,-0.5472,-0.5493,-0.553,-0.5562,-0.5616,-0.5622,-0.5649,-0.567,-0.5692,-0.5716,-0.5696,-0.5697,-0.5699,-0.5763,-0.5759,-0.5763,-0.5725,-0.5726,-0.5727,-0.5759,0,-0.523,-0.5295,-0.5325,-0.5377,-0.5412,-0.5437,-0.5469,-0.5505,-0.5531,-0.5565,-0.5594,-0.5632,-0.5636,-0.5653,-0.5676,-0.5708,-0.5729,-0.5706,-0.5756,-0.5757,-0.5745,-0.5769,-0.5765,-0.5794,-0.5764,-0.5765,-0.5765,0,-0.5267,-0.5306,-0.5361,-0.5411,-0.5427,-0.5455,-0.55,-0.5532,-0.5574,-0.5591,-0.5622,-0.5642,-0.5682,-0.5679,-0.5735,-0.5718,-0.574,-0.5759,-0.5761,-0.5768,-0.5763,-0.5777,-0.5804,-0.5808,-0.5773,-0.5772,-0.5772,0,-0.5265,-0.5331,-0.5373,-0.5394,-0.5453,-0.5472,-0.5497,-0.5539,-0.5565,-0.5604,-0.5621,-0.5664,-0.5688,-0.5722,-0.5753,-0.5748,-0.5807,-0.5806,-0.5824,-0.5823,-0.5835,-0.5834,-0.5867,-0.5848,-0.5848,-0.5848,-0.5848,0,-0.529,-0.5323,-0.5373,-0.5399,-0.5438,-0.5472,-0.551,-0.5537,-0.5574,-0.5607,-0.5631,-0.5661,-0.57,-0.5736,-0.5761,-0.5804,-0.5815,-0.5831,-0.5837,-0.5829,-0.5827,-0.5845,-0.5844,-0.5849,-0.5849,-0.5849,-0.5848,0,-0.5294,-0.5329,-0.5377,-0.5429,-0.5443,-0.547,-0.5515,-0.5542,-0.5569,-0.561,-0.5622,-0.5665,-0.5709,-0.5744,-0.58,-0.5817,-0.5863,-0.5869,-0.5849,-0.5852,-0.5869,-0.5867,-0.5914,-0.5923,-0.5897,-0.5897,-0.5897,0,-0.5308,-0.5335,-0.539,-0.5414,-0.5439,-0.5477,-0.5504,-0.5538,-0.5565,-0.5616,-0.5637,-0.5682,-0.572,-0.5788,-0.5825,-0.5869,-0.5877,-0.5891,-0.5884,-0.5876,-0.5879,-0.5878,-0.5881,-0.5892,-0.5892,-0.5892,-0.5892,0,-0.5329,-0.5346,-0.5383,-0.5428,-0.5459,-0.5495,-0.5532,-0.5551,-0.5592,-0.5622,-0.5666,-0.5696,-0.5754,-0.5799,-0.5846,-0.5874,-0.589,-0.5894,-0.5901,-0.5893,-0.588,-0.5889,-0.5852,-0.5893,-0.5893,-0.5893,-0.5893,-0.5893,-0.534,-0.5365,-0.5409,-0.5451,-0.5482,-0.5517,-0.5545,-0.5577,-0.5614,-0.5665,-0.5683,-0.5729,-0.5772,-0.5838,-0.5866,-0.5903,-0.5904,-0.5914,-0.5916,-0.5918,-0.5918,-0.5874,-0.5911,-0.5912,-0.5912,-0.5912,-0.5912,0,-0.5363,-0.5393,-0.5431,-0.5483,-0.5516,-0.5529,-0.5571,-0.5598,-0.5638,-0.5677,-0.5714,-0.5766,-0.581,-0.5851,-0.5897,-0.5919,-0.5928,-0.5931,-0.593,-0.5936,-0.5913,-0.5903,-0.5923,-0.5923,-0.5923,-0.5923,-0.5923,-0.5923,-0.538,-0.5424,-0.5445,-0.5506,-0.5536,-0.5581,-0.5605,-0.5637,-0.5668,-0.5726,-0.5762,-0.5789,-0.5829,-0.5879,-0.592,-0.5931,-0.5947,-0.5948,-0.5961,-0.5939,-0.5937,-0.5936,-0.5927,-0.5951,-0.5951,-0.5981,-0.5981,-0.5981]}]]